GW4907 Weather Reports


time (UTC)temp
F
wind
direction
speed
knots
gust
knots
rain 1hr
in
rain 24hr
in
rain mn
in
humidity
%
barometer
mb
20260504020908 55 22 1.7 1.7 0.00 0.00 0.00 81 1012.0
20260504020408 56 22 2.6 3.5 0.00 0.00 0.00 81 1012.0
20260504015908 56 22 2.6 2.6 0.00 0.00 0.00 81 1012.0
20260504015408 56 68 3.5 3.5 0.00 0.00 0.00 81 1012.0
20260504014908 56 45 3.5 4.3 0.00 0.00 0.00 80 1012.0
20260504014408 56 45 4.3 4.3 0.00 0.00 0.00 79 1012.0
20260504013908 56 68 2.6 2.6 0.00 0.00 0.00 78 1012.0
20260504013408 56 68 1.7 1.7 0.00 0.00 0.00 77 1012.0
20260504012908 57 22 5.2 5.2 0.00 0.00 0.00 77 1012.0
20260504012408 57 45 1.7 1.7 0.00 0.00 0.00 76 1012.0
20260504011908 57 45 1.7 1.7 0.00 0.00 0.00 75 1012.0
20260504011408 57 22 2.6 2.6 0.00 0.00 0.00 74 1012.0
20260504005408 59 112 0.9 0.9 0.00 0.00 0.00 64 1012.0
20260504004908 59 112 0.9 0.9 0.00 0.00 0.00 64 1012.0
20260504004409 59 112 0.9 0.9 0.00 0.00 0.00 64 1012.0
20260504003908 59 135 1.7 1.7 0.00 0.00 0.00 64 1012.0
20260504003408 59 112 0.0 0.0 0.00 0.00 0.00 63 1012.0
20260504002908 59 158 0.0 0.0 0.00 0.00 0.00 63 1012.0
20260504002408 59 158 1.7 1.7 0.00 0.00 0.00 62 1012.0
20260504001908 59 158 1.7 1.7 0.00 0.00 0.00 62 1012.0
20260504001409 59 158 1.7 1.7 0.00 0.00 0.00 62 1012.0
20260504000908 59 180 0.9 0.9 0.00 0.00 0.00 62 1012.0
20260504000409 59 180 0.0 0.0 0.00 0.00 0.00 63 1012.0
20260503235908 59 202 1.7 1.7 0.00 0.00 0.00 63 1012.0
20260503235408 59 202 1.7 1.7 0.00 0.00 0.00 64 1012.0
20260503234908 59 158 2.6 2.6 0.00 0.00 0.00 63 1012.0
20260503234408 59 202 1.7 1.7 0.00 0.00 0.00 64 1012.0
20260503233908 59 202 0.9 0.9 0.00 0.00 0.00 63 1012.0
20260503233408 59 202 1.7 1.7 0.00 0.00 0.00 64 1012.0
20260503232908 59 158 2.6 2.6 0.00 0.00 0.00 64 1012.0
20260503232408 59 248 0.9 0.9 0.00 0.00 0.00 63 1012.0
20260503231908 59 180 4.3 4.3 0.00 0.00 0.00 63 1012.0
20260503231408 59 158 2.6 2.6 0.00 0.00 0.00 63 1012.0
20260503230909 59 158 3.5 4.3 0.00 0.00 0.00 63 1012.0
20260503230408 59 202 4.3 4.3 0.00 0.00 0.00 63 1012.0
20260503225908 59 158 4.3 4.3 0.00 0.00 0.00 64 1012.0
20260503225408 59 248 2.6 2.6 0.00 0.00 0.00 64 1012.0
20260503224908 59 180 3.5 4.3 0.00 0.00 0.00 64 1012.0
20260503224408 59 158 3.5 3.5 0.00 0.00 0.00 64 1012.0
20260503223908 59 248 2.6 2.6 0.00 0.00 0.00 63 1012.0
20260503223408 59 202 1.7 1.7 0.00 0.00 0.00 64 1012.0
20260503222908 59 158 6.1 7.0 0.00 0.00 0.00 64 1012.0
20260503222408 59 180 4.3 4.3 0.00 0.00 0.00 63 1012.0
20260503221908 59 248 6.1 7.0 0.00 0.00 0.00 62 1012.0
20260503221408 59 135 6.1 6.1 0.00 0.00 0.00 62 1012.0
20260503220908 59 225 7.0 7.8 0.00 0.00 0.00 62 1012.0
20260503220409 59 180 2.6 2.6 0.00 0.00 0.00 62 1012.0
20260503215908 60 158 3.5 3.5 0.00 0.00 0.00 62 1012.0
20260503215408 60 225 5.2 6.1 0.00 0.00 0.00 62 1012.0
20260503214909 60 158 5.2 5.2 0.00 0.00 0.00 62 1012.0
20260503214409 60 202 3.5 4.3 0.00 0.00 0.00 62 1012.0
20260503213908 60 202 3.5 4.3 0.00 0.00 0.00 62 1012.0
20260503213408 60 248 6.1 6.1 0.00 0.00 0.00 61 1012.0
20260503212908 60 202 6.1 6.1 0.00 0.00 0.00 61 1012.0
20260503212409 60 202 7.0 7.8 0.00 0.00 0.00 61 1012.0
20260503211908 60 202 6.1 7.0 0.00 0.00 0.00 61 1012.0
20260503211408 60 248 7.0 7.0 0.00 0.00 0.00 61 1012.0
20260503210908 60 248 6.1 6.1 0.00 0.00 0.00 62 1012.0
20260503210408 60 225 7.8 8.7 0.00 0.00 0.00 62 1012.0
20260503205908 60 158 4.3 5.2 0.00 0.00 0.00 61 1012.0
20260503205409 60 158 4.3 4.3 0.00 0.00 0.00 62 1012.0
20260503204909 60 158 6.1 7.0 0.00 0.00 0.00 62 1012.0
20260503204408 60 248 5.2 5.2 0.00 0.00 0.00 62 1012.0
20260503203908 60 202 4.3 4.3 0.00 0.00 0.00 61 1012.0
20260503203409 60 112 4.3 4.3 0.00 0.00 0.00 62 1012.0
20260503202908 60 225 3.5 3.5 0.00 0.00 0.00 61 1012.0
20260503202408 60 202 3.5 4.3 0.00 0.00 0.00 61 1012.0
20260503201908 60 158 5.2 5.2 0.00 0.00 0.00 60 1012.0
20260503201408 60 135 7.0 7.8 0.00 0.00 0.00 60 1012.0
20260503200908 60 158 4.3 4.3 0.00 0.00 0.00 61 1012.0
20260503200408 60 180 3.5 4.3 0.00 0.00 0.00 63 1012.0
20260503195908 60 135 3.5 4.3 0.00 0.00 0.00 61 1012.0
20260503195408 60 158 7.8 8.7 0.00 0.00 0.00 61 1012.0
20260503194908 60 135 6.1 6.1 0.00 0.00 0.00 61 1012.0
20260503194408 60 135 4.3 4.3 0.00 0.00 0.00 61 1011.0
20260503193908 60 180 3.5 4.3 0.00 0.00 0.00 61 1011.0
20260503193409 60 158 4.3 4.3 0.00 0.00 0.00 60 1011.0
20260503192908 60 180 5.2 5.2 0.00 0.00 0.00 60 1011.0
20260503192409 60 202 3.5 3.5 0.00 0.00 0.00 60 1011.0
20260503191908 60 135 5.2 5.2 0.00 0.00 0.00 58 1011.0
20260503191408 60 202 7.0 7.8 0.00 0.00 0.00 57 1011.0
20260503190908 60 135 5.2 5.2 0.00 0.00 0.00 57 1011.0
20260503190408 60 135 5.2 7.0 0.00 0.00 0.00 55 1011.0
20260503185908 60 135 2.6 2.6 0.00 0.00 0.00 55 1011.0
20260503185408 60 202 4.3 4.3 0.00 0.00 0.00 55 1011.0
20260503184908 60 202 5.2 5.2 0.00 0.00 0.00 56 1011.0
20260503184408 60 135 7.0 7.8 0.00 0.00 0.00 56 1011.0
20260503183912 60 158 3.5 4.3 0.00 0.00 0.00 56 1011.0
20260503183409 61 158 7.0 7.8 0.00 0.00 0.00 59 1011.0
20260503182909 61 158 7.8 8.7 0.00 0.00 0.00 59 1011.0
20260503182408 61 158 5.2 5.2 0.00 0.00 0.00 59 1011.0
20260503181908 61 158 3.5 4.3 0.00 0.00 0.00 58 1011.0
20260503181410 61 180 2.6 2.6 0.00 0.00 0.00 59 1010.0
20260503180908 61 112 6.1 7.0 0.00 0.00 0.00 59 1010.0
20260503180409 61 158 2.6 3.5 0.00 0.00 0.00 60 1010.0
20260503175908 61 225 4.3 4.3 0.00 0.00 0.00 60 1010.0
20260503175409 61 202 3.5 4.3 0.00 0.00 0.00 59 1010.0
20260503174908 61 225 3.5 4.3 0.00 0.00 0.00 58 1010.0
20260503174408 62 158 5.2 5.2 0.00 0.00 0.00 57 1010.0
20260503173909 62 202 4.3 5.2 0.00 0.00 0.00 58 1010.0
20260503173409 62 225 4.3 5.2 0.00 0.00 0.00 58 1010.0
20260503172908 62 158 5.2 5.2 0.00 0.00 0.00 57 1010.0
20260503172408 63 202 1.7 1.7 0.00 0.00 0.00 53 1010.0
20260503171908 63 202 5.2 5.2 0.00 0.00 0.00 52 1010.0
20260503171408 63 202 4.3 4.3 0.00 0.00 0.00 53 1010.0
20260503170908 63 225 6.1 6.1 0.00 0.00 0.00 53 1010.0
20260503170408 63 202 3.5 4.3 0.00 0.00 0.00 53 1010.0
20260503150908 70 202 5.2 5.2 0.00 0.00 0.00 28 1009.0
20260503150408 70 180 2.6 2.6 0.00 0.00 0.00 28 1009.0
20260503131408 71 45 2.6 2.6 0.00 0.00 0.00 32 1009.0
20260503130908 70 112 3.5 3.5 0.00 0.00 0.00 33 1009.0
20260503130409 69 248 3.5 4.3 0.00 0.00 0.00 34 1009.0
20260503110408 65 202 1.7 1.7 0.00 0.00 0.00 41 1009.0
20260503090408 62 248 3.5 3.5 0.00 0.00 0.00 51 1009.0
20260503081408 64 292 3.5 4.3 0.00 0.00 0.00 44 1009.0
20260503080908 64 338 0.0 0.0 0.00 0.00 0.00 47 1009.0
20260503080408 63 68 0.0 0.0 0.00 0.00 0.00 46 1009.0
20260503072908 59 68 0.0 0.0 0.00 0.00 0.00 54 1009.0
20260503072408 59 68 4.3 4.3 0.00 0.00 0.00 54 1009.0
20260503071908 59 90 3.5 3.5 0.00 0.00 0.00 54 1009.0
20260503071409 59 68 3.5 3.5 0.00 0.00 0.00 53 1009.0
20260503070908 59 68 5.2 5.2 0.00 0.00 0.00 54 1009.0
20260503070408 59 68 2.6 2.6 0.00 0.00 0.00 54 1009.0
20260503054908 57 45 1.7 1.7 0.00 0.00 0.00 60 1009.0
20260503054408 57 45 0.9 0.9 0.00 0.00 0.00 60 1009.0
20260503053910 58 45 0.0 0.0 0.00 0.00 0.00 59 1009.0
20260503053408 58 45 0.0 0.0 0.00 0.00 0.00 56 1009.0
20260503052909 57 68 0.0 0.0 0.00 0.00 0.00 58 1009.0
20260503052408 57 68 0.0 0.0 0.00 0.00 0.00 62 1009.0
20260503051908 56 68 1.7 1.7 0.00 0.00 0.00 62 1009.0
20260503051408 56 68 0.0 0.0 0.00 0.00 0.00 65 1009.0
20260503050911 55 68 3.5 4.3 0.00 0.00 0.00 66 1009.0
20260503050408 55 68 2.6 2.6 0.00 0.00 0.00 67 1009.0
20260503045909 55 68 3.5 3.5 0.00 0.00 0.00 66 1009.0
20260503045408 55 68 2.6 3.5 0.00 0.00 0.00 67 1009.0
20260503044908 54 68 4.3 4.3 0.00 0.00 0.00 66 1009.0
20260503044408 54 68 1.7 1.7 0.00 0.00 0.00 65 1009.0
20260503043908 54 68 4.3 4.3 0.00 0.00 0.00 64 1009.0
20260503043408 54 68 3.5 3.5 0.00 0.00 0.00 66 1009.0
20260503042908 53 45 1.7 1.7 0.00 0.00 0.00 65 1009.0
20260503042408 53 45 2.6 2.6 0.00 0.00 0.00 65 1009.0
20260503041909 53 68 1.7 1.7 0.00 0.00 0.00 68 1009.0
20260503041408 53 68 2.6 2.6 0.00 0.00 0.00 69 1010.0
20260503040908 53 45 3.5 4.3 0.00 0.00 0.00 69 1010.0
20260503040408 53 68 1.7 1.7 0.00 0.00 0.00 67 1010.0
20260503035908 53 22 5.2 5.2 0.00 0.00 0.00 67 1009.0
20260503035408 53 68 1.7 1.7 0.00 0.00 0.00 68 1009.0
20260503034908 53 45 2.6 2.6 0.00 0.00 0.00 68 1009.0
20260503034408 53 45 1.7 1.7 0.00 0.00 0.00 67 1009.0
20260503033908 53 45 3.5 3.5 0.00 0.00 0.00 68 1009.0
20260503033408 53 68 2.6 3.5 0.00 0.00 0.00 69 1009.0
20260503032908 53 68 5.2 5.2 0.00 0.00 0.00 69 1009.0
20260503032408 53 22 3.5 3.5 0.00 0.00 0.00 69 1009.0
20260503031908 54 45 3.5 4.3 0.00 0.00 0.00 70 1009.0
20260503031409 54 45 2.6 2.6 0.00 0.00 0.00 70 1009.0
20260503030908 54 68 2.6 2.6 0.00 0.00 0.00 69 1009.0
20260503030408 54 68 3.5 4.3 0.00 0.00 0.00 69 1009.0
20260503025908 54 45 1.7 1.7 0.00 0.00 0.00 68 1009.0
20260503025408 54 45 2.6 2.6 0.00 0.00 0.00 66 1009.0
20260503024908 55 45 0.0 0.0 0.00 0.00 0.00 65 1009.0
20260503024408 55 45 1.7 1.7 0.00 0.00 0.00 64 1010.0
20260503023908 55 68 0.9 0.9 0.00 0.00 0.00 64 1010.0
20260503023409 54 68 2.6 2.6 0.00 0.00 0.00 65 1010.0
20260503022908 54 68 2.6 2.6 0.00 0.00 0.00 68 1009.0
20260503022408 54 45 1.7 1.7 0.00 0.00 0.00 68 1009.0
20260503021908 54 45 0.9 0.9 0.00 0.00 0.00 67 1009.0
20260503021408 54 45 3.5 3.5 0.00 0.00 0.00 67 1010.0